Weather History for Ft. Stewart, GA

Change the Weather History Date:

Sunday, January 22, 2012

  Actual Average Record
Temperature  
Mean Temperature 56 °F -  
Max Temperature 62 °F 60 °F 80 °F (1999)
Min Temperature 50 °F 39 °F 14 °F (1985)
Degree Days  
Heating Degree Days 8    
Growing Degree Days 6 (Base 50)    
Moisture  
Dew Point 56 °F    
Average Humidity 98    
Maximum Humidity 100    
Minimum Humidity 88    
Precipitation  
Precipitation 0.01 in - - ()
Sea Level Pressure  
Sea Level Pressure 30.12 in    
Wind  
Wind Speed 3 mph (NE)    
Max Wind Speed 15 mph    
Max Gust Speed 18 mph    
Visibility 6 miles    
Events Fog    
Averages and records for this station are not official NWS values.
T = Trace of Precipitation, MM = Missing Value Source: NWS Daily Summary

Daily Weather History Graph

Daily Weather History Graph

Search for Another Location

Airport:

Trip Planner

Search our weather history database for the weather conditions in past years. The results will help you decide how hot, cold, wet, or windy it might be!

Date:

Astronomy

Jan. 22, 2012 Rise Set
Actual Time 7:25 AM EST 5:50 PM EST
Civil Twilight 6:58 AM EST 6:16 PM EST
Nautical Twilight 6:29 AM EST 6:46 PM EST
Astronomical Twilight 6:00 AM EST 7:15 PM EST
Moon 6:40 AM EST (1/22) 5:30 PM EST (1/22)
Length of Visible Light 11h 17m
Length of Day
10h 25m
Waning Crescent, 0% of the Moon is Illuminated
Jan 22
Waning Crescent
Jan 23
New
Jan 30
First Quarter
Feb 7
Full
Feb 14
Last Quarter

Hourly Weather History & Observations

Time (EST) Temp. Dew Point Humidity Pressure Visibility Wind Dir Wind Speed Gust Speed Precip Events Conditions
12:12 AM 57.2 °F 57.2 °F 100% 30.04 in 2.5 mi Calm Calm - N/A   Partly Cloudy
12:14 AM 57.2 °F 57.2 °F 100% 30.04 in 2.0 mi Calm Calm - N/A   Partly Cloudy
12:17 AM 57.2 °F 57.2 °F 100% 30.04 in 1.8 mi Calm Calm - N/A   Partly Cloudy
12:20 AM 57.2 °F 57.2 °F 100% 30.04 in 2.0 mi Calm Calm - N/A   Clear
12:23 AM 57.2 °F 57.2 °F 100% 30.04 in 1.8 mi Calm Calm - N/A   Clear
12:25 AM 57.2 °F 57.2 °F 100% 30.04 in 1.5 mi Calm Calm - N/A   Clear
12:26 AM 57.2 °F 57.2 °F 100% 30.04 in 1.2 mi Calm Calm - N/A   Clear
12:28 AM 57.2 °F 57.2 °F 100% 30.04 in 1.0 mi Calm Calm - N/A   Clear
12:31 AM 57.2 °F 57.2 °F 100% 30.04 in 0.8 mi Calm Calm - N/A   Clear
12:33 AM 57.2 °F 57.2 °F 100% 30.04 in 0.8 mi Calm Calm - N/A   Clear
12:35 AM 57.2 °F 57.2 °F 100% 30.04 in 0.5 mi Calm Calm - N/A Fog Fog
12:55 AM 54.7 °F 54.7 °F 100% 30.03 in 0.5 mi Calm Calm - N/A Fog Fog
1:04 AM 55.4 °F 55.4 °F 100% 30.03 in 0.5 mi Calm Calm - N/A Fog Fog
1:32 AM 53.6 °F 53.6 °F 100% 30.04 in 0.8 mi North 5.8 mph - N/A   Mist
1:34 AM 53.6 °F 53.6 °F 100% 30.04 in 0.8 mi North 3.5 mph - N/A   Mist
1:35 AM 53.6 °F 53.6 °F 100% 30.04 in 1.0 mi North 3.5 mph - N/A   Clear
1:38 AM 53.6 °F 53.6 °F 100% 30.05 in 1.2 mi North 3.5 mph - N/A   Clear
1:41 AM 53.6 °F 53.6 °F 100% 30.05 in 1.5 mi North 3.5 mph - N/A   Clear
1:43 AM 53.6 °F 53.6 °F 100% 30.05 in 1.8 mi North 3.5 mph - N/A   Clear
1:47 AM 53.6 °F 53.6 °F 100% 30.05 in 2.0 mi North 5.8 mph - N/A   Partly Cloudy
1:51 AM 53.6 °F 53.6 °F 100% 30.05 in 2.5 mi NNW 3.5 mph - N/A   Scattered Clouds
1:55 AM 53.6 °F 53.6 °F 100% 30.05 in 3.0 mi NNW 3.5 mph - N/A   Scattered Clouds
1:56 AM 53.6 °F 53.6 °F 100% 30.05 in 3.0 mi NNW 3.5 mph - N/A   Mostly Cloudy
1:59 AM 53.6 °F 53.6 °F 100% 30.05 in 4.0 mi NNW 3.5 mph - N/A   Mostly Cloudy
2:37 AM 57.2 °F 57.2 °F 100% 30.06 in 10.0 mi Calm Calm - N/A   Overcast
2:46 AM 57.2 °F 57.2 °F 100% 30.05 in 10.0 mi Calm Calm - N/A   Overcast
2:55 AM 57.9 °F 57.9 °F 100% 30.05 in 10.0 mi NNE 4.6 mph - N/A   Overcast
3:08 AM 57.2 °F 57.2 °F 100% 30.06 in 10.0 mi NNE 3.5 mph - N/A   Overcast
3:46 AM 57.2 °F 57.2 °F 100% 30.07 in 10.0 mi NE 4.6 mph - N/A   Overcast
3:55 AM 58.1 °F 58.1 °F 100% 30.07 in 10.0 mi Calm Calm - 0.01 in   Overcast
4:38 AM 57.2 °F 57.2 °F 100% 30.08 in 7.0 mi Calm Calm - N/A   Overcast
4:55 AM 58.1 °F 58.1 °F 100% 30.08 in 5.0 mi Calm Calm - N/A   Overcast
5:03 AM 57.2 °F 57.2 °F 100% 30.09 in 4.0 mi Calm Calm - N/A   Overcast
5:23 AM 59.0 °F 59.0 °F 100% 30.09 in 5.0 mi ENE 3.5 mph - N/A   Overcast
5:32 AM 57.2 °F 57.2 °F 100% 30.10 in 7.0 mi Calm Calm - N/A   Overcast
5:55 AM 58.1 °F 58.1 °F 100% 30.11 in 7.0 mi Calm Calm - N/A   Overcast
5:56 AM 59.0 °F 59.0 °F 100% 30.11 in 7.0 mi Calm Calm - N/A   Overcast
6:09 AM 59.0 °F 59.0 °F 100% 30.11 in 7.0 mi Calm Calm - N/A   Overcast
6:20 AM 59.0 °F 59.0 °F 100% 30.11 in 7.0 mi Calm Calm - N/A   Overcast
6:47 AM 59.0 °F 59.0 °F 100% 30.12 in 5.0 mi East 3.5 mph - N/A   Overcast
6:55 AM 58.1 °F 58.1 °F 100% 30.12 in 5.0 mi ESE 3.5 mph - N/A   Overcast
6:57 AM 59.0 °F 59.0 °F 100% 30.12 in 6.0 mi Calm Calm - N/A   Overcast
7:20 AM 59.0 °F 59.0 °F 100% 30.13 in 8.0 mi Calm Calm - N/A   Overcast
7:55 AM 58.3 °F 58.3 °F 100% 30.13 in 6.0 mi ENE 4.6 mph - N/A   Overcast
8:55 AM 59.2 °F 59.2 °F 100% 30.15 in 10.0 mi ENE 4.6 mph - N/A   Overcast
9:03 AM 59.0 °F 59.0 °F 100% 30.16 in 10.0 mi ENE 4.6 mph - N/A   Overcast
9:31 AM 60.8 °F 60.8 °F 100% 30.17 in 10.0 mi East 6.9 mph - N/A   Overcast
9:54 AM 60.8 °F 60.8 °F 100% 30.18 in 10.0 mi East 6.9 mph - N/A   Overcast
9:55 AM 60.6 °F 60.6 °F 100% 30.18 in 10.0 mi East 6.9 mph - N/A   Overcast
10:40 AM 60.8 °F 60.8 °F 100% 30.19 in 10.0 mi East 8.1 mph - N/A   Overcast
10:55 AM 61.7 °F 61.7 °F 100% 30.19 in 10.0 mi ENE 5.8 mph - N/A   Overcast
11:55 AM 62.1 °F 59.7 °F 92% 30.19 in 10.0 mi ENE 13.8 mph 18.4 mph N/A   Overcast
12:55 PM 59.2 °F 56.1 °F 90% 30.18 in 10.0 mi East 15.0 mph - N/A   Overcast
1:55 PM 58.5 °F 55.4 °F 90% 30.18 in 10.0 mi ESE 9.2 mph - N/A   Overcast
2:55 PM 56.8 °F 53.8 °F 89% 30.18 in 10.0 mi East 9.2 mph - N/A   Overcast
3:55 PM 56.3 °F 53.2 °F 89% 30.19 in 10.0 mi ENE 11.5 mph - N/A   Overcast
4:55 PM 55.8 °F 52.3 °F 88% 30.19 in 10.0 mi East 11.5 mph - N/A   Overcast
5:55 PM 54.7 °F 52.0 °F 91% 30.21 in 10.0 mi East 6.9 mph - N/A   Overcast
6:55 PM 54.1 °F 52.0 °F 92% 30.22 in 10.0 mi ENE 6.9 mph - N/A   Overcast
7:55 PM 53.8 °F 51.6 °F 92% 30.23 in 10.0 mi NE 6.9 mph - N/A   Overcast
8:07 PM 53.6 °F 51.8 °F 94% 30.23 in 10.0 mi ENE 9.2 mph - N/A   Overcast
8:13 PM 53.6 °F 51.8 °F 94% 30.23 in 10.0 mi ENE 8.1 mph - N/A   Overcast
8:18 PM 53.6 °F 51.8 °F 94% 30.23 in 10.0 mi ENE 8.1 mph - N/A   Overcast
8:55 PM 53.4 °F 51.4 °F 93% 30.23 in 10.0 mi NE 4.6 mph - N/A   Overcast
9:55 PM 52.5 °F 50.9 °F 94% 30.23 in 10.0 mi ENE 8.1 mph - N/A   Overcast
10:03 PM 51.8 °F 50.0 °F 94% 30.23 in 10.0 mi ENE 6.9 mph - N/A   Overcast
10:55 PM 51.6 °F 50.2 °F 95% 30.23 in 10.0 mi ENE 6.9 mph - N/A   Overcast
11:00 PM 51.8 °F 50.0 °F 94% 30.23 in 9.0 mi ENE 6.9 mph - N/A   Overcast
11:12 PM 51.8 °F 50.0 °F 94% 30.24 in 9.0 mi Calm Calm - N/A   Overcast
11:40 PM 51.8 °F 50.0 °F 94% 30.22 in 5.0 mi NE 6.9 mph - N/A   Overcast
11:46 PM 51.8 °F 50.0 °F 94% 30.22 in 4.0 mi ENE 5.8 mph - N/A   Overcast
11:55 PM 50.9 °F 50.2 °F 97% 30.22 in 3.0 mi ENE 5.8 mph - N/A   Overcast